This demonstration page uses our WeatherBlox Daily Observations layout. Learn more.

Left ArrowRight Arrow

30.00354, -91.81873

Hourly Observations for July 29, 2022

Temp ( °F °C ) Dew Point ( °F °C ) Humidity (%) Winds ( mph kmh ) Pressure ( in mb ) Visibility ( mi km ) Precip ( " mm )
12:53 am 00:53 Clear 76 24.4 73 22.8 91 91 SSE 3 6 30.02 1017 10 16 0.00 0.00
1:53 am 01:53 Clear 76 24.4 73 22.8 91 91 SSE 6 9 29.99 1016 10 16 0.00 0.00
2:53 am 02:53 Partly Cloudy 77 25 74 23.3 90 90 Calm 30.02 1017 10 16 0.00 0.00
3:53 am 03:53 Mostly Clear 77 25 74 23.3 90 90 Calm 30.02 1017 10 16 0.00 0.00
4:53 am 04:53 Clear 77 25 74 23.3 90 90 Calm 30.03 1017 10 16 0.00 0.00
5:53 am 05:53 Clear 76 24.4 73 22.8 91 91 Calm 30.04 1017 10 16 0.00 0.00
6:53 am 06:53 Sunny 76 24.4 74 23.3 94 94 S 3 6 30.05 1018 10 16 0.00 0.00
7:53 am 07:53 Mostly Cloudy 79 26.1 77 25 94 94 Calm 30.06 1018 10 16 0.00 0.00
8:53 am 08:53 Sunny 85 29.4 77 25 77 77 SW 6 9 30.07 1018 10 16 0.00 0.00
9:53 am 09:53 Sunny 88 31.1 76 24.4 68 68 WSW 6 9 30.07 1018 10 16 0.00 0.00
10:53 am 10:53 Sunny 89 31.7 74 23.3 61 61 W 6 9 30.08 1019 10 16 0.00 0.00
11:53 am 11:53 Partly Cloudy 90 32.2 74 23.3 59 59 SSW 6 9 30.08 1019 10 16 0.00 0.00
12:53 pm 12:53 Cloudy with Light Rain 91 32.8 77 25 64 64 SSW 9 15 30.07 1018 10 16 0.00 0.00
1:53 pm 13:53 Sunny 89 31.7 75 23.9 63 63 SSW 8 13 30.06 1018 10 16 0.03 0.76
2:53 pm 14:53 Partly Cloudy 89 31.7 76 24.4 65 65 S 9 15 30.04 1017 10 16 0.00 0.00
3:10 pm 15:10 Mostly Cloudy with Thunderstorms 78 25.6 71 21.7 79 79 W 16 26 30.06 1018 4 6 0.04 1.02
3:17 pm 15:17 Mostly Cloudy with Thunderstorms 80 26.7 70 21.1 71 71 NW 14 22 30.06 1018 8 13 0.05 1.27
3:24 pm 15:24 Cloudy with Thunderstorms 80 26.7 72 22.2 76 76 NW 9 15 30.05 1018 7 11 0.05 1.27
3:50 pm 15:50 Mostly Sunny 82 28 73 23 74 74 N 5 7 30.06 1018 10 16 0.05 1.27
3:53 pm 15:53 Partly Cloudy with Nearby Thunderstorms 82 27.8 74 23.3 77 77 N 5 7 30.05 1018 10 16 0.05 1.27
4:53 pm 16:53 Partly Cloudy with Nearby Thunderstorms 84 28.9 76 24.4 77 77 N 7 11 30.05 1018 10 16 0.00 0.00
5:10 pm 17:10 Partly Cloudy with Thunderstorms 82 27.8 74 23.3 77 77 NNE 8 13 30.06 1018 10 16 0.00 0.00
5:25 pm 17:25 Partly Cloudy with Nearby Thunderstorms 83 28.3 73 22.8 72 72 E 6 9 30.05 1018 10 16 0.00 0.00
5:53 pm 17:53 Partly Cloudy with Nearby Thunderstorms 81 27.2 75 23.9 82 82 E 12 19 30.06 1018 10 16 0.00 0.00
6:25 pm 18:25 Mostly Cloudy with Light Rain 79 26.1 75 23.9 88 88 SE 7 11 30.03 1017 10 16 0.01 0.25
6:53 pm 18:53 Sunny 78 25.6 73 22.8 85 85 SE 8 13 30.03 1017 10 16 0.01 0.25
7:53 pm 19:53 Mostly Cloudy with Light Rain 77 25 73 22.8 88 88 ENE 6 9 30.04 1017 10 16 0.00 0.00
8:53 pm 20:53 Clear 77 25 74 23.3 90 90 NNE 3 6 30.07 1018 10 16 0.00 0.00
9:26 pm 21:26 Clear with Nearby Thunderstorms 77 25 74 23.3 90 90 E 5 7 30.09 1019 10 16 0.00 0.00
9:36 pm 21:36 Clear with Thunderstorms 77 25 73 22.8 88 88 S 5 7 30.10 1019 10 16 0.00 0.00
9:47 pm 21:47 Mostly Clear 75 24 73 23 94 94 SSE 5 7 30.10 1019 10 16 0.00 0.00
9:53 pm 21:53 Clear 77 25 74 23.3 90 90 SE 7 11 30.09 1019 10 16 0.00 0.00
10:53 pm 22:53 Mostly Clear 75 23.9 70 21.1 84 84 SSE 3 6 30.08 1019 10 16 0.00 0.00
11:53 pm 23:53 Clear 76 24.4 71 21.7 85 85 Calm 30.08 1019 10 16 0.00 0.00

Powered by AerisWeather